Location: Prague
(50.0830°N, 14.4670°E)
Time: 09:45:40
(UTC+01:00)

STARLINK-1617 - Pass Details

Date: 22 January 2021
Orbit: 545 x 549 km, 53.1° (Epoch: 25 February)

Event Time Altitude Azimuth Distance (km) Brightness Sun altitude
Exits shadow 05:44:01 52° 255° (WSW) 684 3.7 -19.6°
Maximum altitude 05:44:58 86° 339° (NNW) 554 3.5 -19.5°
Drops below altitude 10° 05:49:07 10° 69° (ENE) 1,822 7.2 -18.8°
Sets 05:51:21 0° 70° (ENE) 2,717 8.2 -18.5°
